{"data":{"norad_id":60127,"intl_designator":"2024-118Q","name":"STARLINK-31840","alt_names":[],"object_type":"PAYLOAD","status":"ACTIVE","operator":null,"country":"US","launch_date":"2024-06-24","launch_site_code":"AFWTR","launch_vehicle":null,"mission":null,"orbit_class":"UNKNOWN","rcs_meters":null,"size_class":null,"mass_kg":null,"dimensions":null,"purposes":["comms"],"wikipedia_slug":null,"has_3d_model":false,"image_url":null,"decayed_at":null,"tle_current":{"epoch":"2026-05-24T22:54:49.975776Z","epoch_age_seconds":79228,"freshness":"FRESH","line1":"1 60127U 24118Q   26144.95474509  .00000323  00000+0  22166-4 0  9990","line2":"2 60127  53.1619  32.4266 0001229  91.1203 268.9939 15.31697787107374","mean_motion":15.31697787,"eccentricity":0.0001229,"inclination_deg":53.1619,"raan_deg":32.4266,"arg_perigee_deg":91.1203,"mean_anomaly_deg":268.9939,"bstar":2.2166e-5,"rev_number":10737,"period_min":94.013323791529,"perigee_km":469.90486427797,"apogee_km":471.5883198649,"semimajor_km":6848.8835920714,"source":"CELESTRAK","updated_at":"2026-05-25T13:38:19.168455Z"}}}